| time (UTC) | temp C | wind direction | speed KPH | gust KPH | rain 1hr cm | rain 24hr cm | rain mn cm | humidity % | barometer mb |
| 20260502152009 | 11 | 237 | 1.6 | 4.8 | 0.00 | 0.00 | 0.00 | 51 | 1023.7 |
| 20260502151509 | 11 | 258 | 0.0 | 4.8 | 0.00 | 0.00 | 0.00 | 51 | 1023.6 |
| 20260502150509 | 10 | 269 | 1.6 | 4.8 | 0.00 | 0.00 | 0.00 | 52 | 1023.7 |
| 20260502130510 | 4 | 312 | 0.0 | 0.0 | 0.00 | 0.00 | 0.00 | 88 | 1024.1 |
| 20260502123510 | 2 | 343 | 0.0 | 0.0 | 0.00 | 0.00 | 0.00 | 87 | 1024.1 |
| 20260502123010 | 2 | 346 | 0.0 | 0.0 | 0.00 | 0.00 | 0.00 | 87 | 1024.1 |
| 20260502122509 | 1 | 346 | 0.0 | 0.0 | 0.00 | 0.00 | 0.00 | 86 | 1024.1 |
| 20260502122009 | 1 | 346 | 0.0 | 0.0 | 0.00 | 0.00 | 0.00 | 86 | 1024.1 |
| 20260502121508 | 1 | 342 | 0.0 | 0.0 | 0.00 | 0.00 | 0.00 | 86 | 1024.2 |
| 20260502121009 | 1 | 344 | 0.0 | 0.0 | 0.00 | 0.00 | 0.00 | 85 | 1024.1 |
| 20260502115509 | 0 | 342 | 0.0 | 0.0 | 0.00 | 0.00 | 0.00 | 84 | 1024.0 |
| 20260502115009 | 0 | 345 | 0.0 | 0.0 | 0.00 | 0.00 | 0.00 | 83 | 1023.9 |
| 20260502114510 | 0 | 346 | 0.0 | 0.0 | 0.00 | 0.00 | 0.00 | 83 | 1023.9 |
| 20260502114009 | 0 | 345 | 0.0 | 0.0 | 0.00 | 0.00 | 0.00 | 83 | 1023.8 |
| 20260502113509 | 0 | 346 | 0.0 | 0.0 | 0.00 | 0.00 | 0.00 | 83 | 1023.8 |
| 20260502113010 | 0 | 346 | 0.0 | 0.0 | 0.00 | 0.00 | 0.00 | 83 | 1023.8 |
| 20260502112509 | 0 | 346 | 0.0 | 0.0 | 0.00 | 0.00 | 0.00 | 82 | 1023.7 |
| 20260502112009 | 0 | 346 | 0.0 | 0.0 | 0.00 | 0.00 | 0.00 | 82 | 1023.7 |
| 20260502111509 | 1 | 346 | 0.0 | 0.0 | 0.00 | 0.00 | 0.00 | 82 | 1023.7 |
| 20260502111009 | 1 | 346 | 0.0 | 0.0 | 0.00 | 0.00 | 0.00 | 82 | 1023.6 |
| 20260502110509 | 1 | 346 | 0.0 | 0.0 | 0.00 | 0.00 | 0.00 | 82 | 1023.6 |
| 20260502110009 | 1 | 346 | 0.0 | 0.0 | 0.00 | 0.00 | 0.00 | 82 | 1023.6 |
| 20260502105509 | 1 | 346 | 0.0 | 0.0 | 0.00 | 0.00 | 0.00 | 82 | 1023.6 |
| 20260502105009 | 1 | 346 | 0.0 | 0.0 | 0.00 | 0.00 | 0.00 | 82 | 1023.6 |
| 20260502104510 | 1 | 346 | 0.0 | 0.0 | 0.00 | 0.00 | 0.00 | 82 | 1023.6 |
| 20260502104009 | 1 | 346 | 0.0 | 0.0 | 0.00 | 0.00 | 0.00 | 81 | 1023.5 |
| 20260502103510 | 1 | 346 | 0.0 | 0.0 | 0.00 | 0.00 | 0.00 | 81 | 1023.6 |
| 20260502103010 | 1 | 345 | 0.0 | 0.0 | 0.00 | 0.00 | 0.00 | 81 | 1023.5 |
| 20260502102510 | 1 | 346 | 0.0 | 0.0 | 0.00 | 0.00 | 0.00 | 81 | 1023.5 |
| 20260502101010 | 1 | 345 | 0.0 | 0.0 | 0.00 | 0.00 | 0.00 | 81 | 1023.5 |
| 20260502100509 | 1 | 346 | 0.0 | 0.0 | 0.00 | 0.00 | 0.00 | 80 | 1023.4 |
| 20260502091510 | 1 | 345 | 0.0 | 0.0 | 0.00 | 0.00 | 0.00 | 79 | 1023.3 |
| 20260502091010 | 1 | 345 | 0.0 | 0.0 | 0.00 | 0.00 | 0.00 | 79 | 1023.1 |
| 20260502090510 | 1 | 346 | 0.0 | 0.0 | 0.00 | 0.00 | 0.00 | 79 | 1023.1 |
| 20260502071508 | 3 | 346 | 0.0 | 0.0 | 0.00 | 0.00 | 0.00 | 77 | 1023.1 |
| 20260502071009 | 3 | 346 | 0.0 | 0.0 | 0.00 | 0.00 | 0.00 | 76 | 1023.1 |
| 20260502070509 | 3 | 346 | 0.0 | 0.0 | 0.00 | 0.00 | 0.00 | 76 | 1023.1 |
| 20260502065508 | 3 | 346 | 0.0 | 0.0 | 0.00 | 0.00 | 0.00 | 75 | 1023.1 |
| 20260502064510 | 3 | 346 | 0.0 | 0.0 | 0.00 | 0.00 | 0.00 | 74 | 1023.1 |
| 20260502064009 | 3 | 345 | 0.0 | 0.0 | 0.00 | 0.00 | 0.00 | 74 | 1023.2 |
| 20260502063010 | 3 | 346 | 0.0 | 0.0 | 0.00 | 0.00 | 0.00 | 72 | 1023.2 |
| 20260502062009 | 3 | 345 | 0.0 | 0.0 | 0.00 | 0.00 | 0.00 | 71 | 1023.0 |
| 20260502061510 | 3 | 346 | 0.0 | 0.0 | 0.00 | 0.00 | 0.00 | 71 | 1023.0 |
| 20260502061009 | 3 | 311 | 0.0 | 0.0 | 0.00 | 0.00 | 0.00 | 71 | 1022.9 |
| 20260502060509 | 4 | 314 | 0.0 | 0.0 | 0.00 | 0.00 | 0.00 | 70 | 1022.9 |
| 20260502060009 | 4 | 305 | 0.0 | 0.0 | 0.00 | 0.00 | 0.00 | 70 | 1022.8 |
| 20260502055509 | 4 | 313 | 0.0 | 0.0 | 0.00 | 0.00 | 0.00 | 69 | 1022.8 |
| 20260502055009 | 4 | 326 | 0.0 | 0.0 | 0.00 | 0.00 | 0.00 | 69 | 1022.8 |
| 20260502053010 | 5 | 339 | 0.0 | 0.0 | 0.00 | 0.00 | 0.00 | 67 | 1022.7 |
| 20260502052508 | 5 | 341 | 0.0 | 0.0 | 0.00 | 0.00 | 0.00 | 66 | 1022.7 |
| 20260502052010 | 5 | 342 | 0.0 | 0.0 | 0.00 | 0.00 | 0.00 | 66 | 1022.7 |
| 20260502051509 | 5 | 342 | 0.0 | 0.0 | 0.00 | 0.00 | 0.00 | 66 | 1022.6 |
| 20260502051010 | 5 | 344 | 0.0 | 0.0 | 0.00 | 0.00 | 0.00 | 66 | 1022.6 |
| 20260502050509 | 5 | 344 | 0.0 | 0.0 | 0.00 | 0.00 | 0.00 | 66 | 1022.6 |
| 20260502045511 | 5 | 344 | 0.0 | 0.0 | 0.00 | 0.00 | 0.00 | 63 | 1022.5 |
| 20260502045009 | 5 | 344 | 0.0 | 0.0 | 0.00 | 0.00 | 0.00 | 61 | 1022.5 |
| 20260502044509 | 5 | 344 | 0.0 | 0.0 | 0.00 | 0.00 | 0.00 | 60 | 1022.4 |
| 20260502044009 | 5 | 344 | 0.0 | 0.0 | 0.00 | 0.00 | 0.00 | 60 | 1022.4 |
| 20260502043509 | 6 | 344 | 0.0 | 0.0 | 0.00 | 0.00 | 0.00 | 59 | 1022.4 |
| 20260502043009 | 6 | 345 | 0.0 | 0.0 | 0.00 | 0.00 | 0.00 | 59 | 1022.4 |
| 20260502042508 | 6 | 345 | 0.0 | 0.0 | 0.00 | 0.00 | 0.00 | 58 | 1022.5 |
| 20260502042009 | 6 | 345 | 0.0 | 0.0 | 0.00 | 0.00 | 0.00 | 57 | 1022.5 |
| 20260502041509 | 6 | 345 | 0.0 | 0.0 | 0.00 | 0.00 | 0.00 | 56 | 1022.3 |
| 20260502041009 | 6 | 345 | 0.0 | 0.0 | 0.00 | 0.00 | 0.00 | 56 | 1022.3 |
| 20260502040509 | 6 | 345 | 0.0 | 0.0 | 0.00 | 0.00 | 0.00 | 55 | 1022.2 |
| 20260502040010 | 7 | 345 | 0.0 | 0.0 | 0.00 | 0.00 | 0.00 | 55 | 1022.3 |
| 20260502035509 | 7 | 346 | 0.0 | 0.0 | 0.00 | 0.00 | 0.00 | 55 | 1022.3 |
| 20260502035009 | 7 | 346 | 0.0 | 0.0 | 0.00 | 0.00 | 0.00 | 54 | 1022.3 |
| 20260502034009 | 7 | 346 | 0.0 | 0.0 | 0.00 | 0.00 | 0.00 | 53 | 1022.3 |
| 20260502033509 | 7 | 346 | 0.0 | 0.0 | 0.00 | 0.00 | 0.00 | 52 | 1022.3 |
| 20260502033010 | 7 | 346 | 0.0 | 0.0 | 0.00 | 0.00 | 0.00 | 51 | 1022.2 |
| 20260502032509 | 8 | 345 | 0.0 | 0.0 | 0.00 | 0.00 | 0.00 | 50 | 1022.2 |
| 20260502032009 | 8 | 345 | 0.0 | 1.6 | 0.00 | 0.00 | 0.00 | 50 | 1022.2 |
| 20260502031510 | 8 | 346 | 0.0 | 1.6 | 0.00 | 0.00 | 0.00 | 50 | 1022.2 |
| 20260502031009 | 8 | 346 | 0.0 | 0.0 | 0.00 | 0.00 | 0.00 | 49 | 1022.1 |
| 20260502030509 | 8 | 346 | 0.0 | 0.0 | 0.00 | 0.00 | 0.00 | 48 | 1022.0 |
| 20260502030009 | 8 | 346 | 0.0 | 0.0 | 0.00 | 0.00 | 0.00 | 47 | 1022.1 |
| 20260502025509 | 9 | 345 | 0.0 | 0.0 | 0.00 | 0.00 | 0.00 | 46 | 1022.0 |
| 20260502024510 | 10 | 346 | 0.0 | 0.0 | 0.00 | 0.00 | 0.00 | 45 | 1021.7 |
| 20260502024010 | 10 | 345 | 0.0 | 0.0 | 0.00 | 0.00 | 0.00 | 44 | 1021.7 |
| 20260502023509 | 10 | 346 | 0.0 | 3.2 | 0.00 | 0.00 | 0.00 | 44 | 1021.7 |
| 20260502022510 | 10 | 345 | 1.6 | 4.8 | 0.00 | 0.00 | 0.00 | 43 | 1021.6 |
| 20260502022010 | 10 | 18 | 1.6 | 8.0 | 0.00 | 0.00 | 0.00 | 43 | 1021.6 |
| 20260502021510 | 10 | 340 | 3.2 | 8.0 | 0.00 | 0.00 | 0.00 | 42 | 1021.6 |
| 20260502021010 | 10 | 343 | 1.6 | 8.0 | 0.00 | 0.00 | 0.00 | 42 | 1021.3 |
| 20260502020509 | 11 | 348 | 3.2 | 8.0 | 0.00 | 0.00 | 0.00 | 42 | 1021.3 |
| 20260502015510 | 11 | 0 | 1.6 | 8.0 | 0.00 | 0.00 | 0.00 | 41 | 1021.2 |
| 20260502015010 | 11 | 42 | 3.2 | 9.7 | 0.00 | 0.00 | 0.00 | 40 | 1021.1 |
| 20260502014510 | 11 | 349 | 3.2 | 9.7 | 0.00 | 0.00 | 0.00 | 40 | 1021.1 |
| 20260502014010 | 11 | 0 | 3.2 | 14.5 | 0.00 | 0.00 | 0.00 | 39 | 1021.1 |
| 20260502013509 | 11 | 357 | 4.8 | 14.5 | 0.00 | 0.00 | 0.00 | 39 | 1021.1 |
| 20260502013010 | 11 | 324 | 4.8 | 14.5 | 0.00 | 0.00 | 0.00 | 38 | 1021.1 |
| 20260502012510 | 12 | 0 | 8.0 | 14.5 | 0.00 | 0.00 | 0.00 | 37 | 1020.9 |
| 20260502011510 | 12 | 0 | 8.0 | 16.1 | 0.00 | 0.00 | 0.00 | 36 | 1020.8 |
| 20260502011010 | 12 | 9 | 8.0 | 16.1 | 0.00 | 0.00 | 0.00 | 36 | 1020.6 |
| 20260502010510 | 12 | 0 | 6.4 | 16.1 | 0.00 | 0.00 | 0.00 | 37 | 1020.6 |
| 20260502010010 | 12 | 328 | 4.8 | 16.1 | 0.00 | 0.00 | 0.00 | 36 | 1020.6 |
| 20260502005510 | 12 | 350 | 8.0 | 16.1 | 0.00 | 0.00 | 0.00 | 35 | 1020.6 |
| 20260502005009 | 12 | 328 | 8.0 | 19.3 | 0.00 | 0.00 | 0.00 | 35 | 1020.6 |
| 20260502004509 | 12 | 334 | 11.3 | 20.9 | 0.00 | 0.00 | 0.00 | 35 | 1020.6 |
| 20260502004009 | 12 | 322 | 9.7 | 24.1 | 0.00 | 0.00 | 0.00 | 35 | 1020.6 |
| 20260502003509 | 13 | 0 | 9.7 | 24.1 | 0.00 | 0.00 | 0.00 | 35 | 1020.4 |
| 20260502003009 | 13 | 323 | 6.4 | 19.3 | 0.00 | 0.00 | 0.00 | 35 | 1020.4 |
| 20260502002508 | 13 | 307 | 6.4 | 19.3 | 0.00 | 0.00 | 0.00 | 34 | 1020.3 |
| 20260502002009 | 13 | 340 | 8.0 | 22.5 | 0.00 | 0.00 | 0.00 | 35 | 1020.2 |
| 20260502001509 | 13 | 344 | 11.3 | 22.5 | 0.00 | 0.00 | 0.00 | 35 | 1020.3 |
| 20260502001009 | 13 | 0 | 8.0 | 22.5 | 0.00 | 0.00 | 0.00 | 34 | 1020.3 |
| 20260502000508 | 13 | 2 | 3.2 | 24.1 | 0.00 | 0.00 | 0.00 | 35 | 1020.3 |
| 20260502000010 | 13 | 1 | 12.9 | 24.1 | 0.00 | 0.00 | 0.00 | 34 | 1020.3 |
| 20260501235509 | 13 | 343 | 11.3 | 20.9 | 0.00 | 0.00 | 0.00 | 34 | 1020.3 |
| 20260501234509 | 13 | 342 | 11.3 | 19.3 | 0.00 | 0.00 | 0.00 | 33 | 1020.3 |
| 20260501234009 | 13 | 257 | 4.8 | 24.1 | 0.00 | 0.00 | 0.00 | 34 | 1020.3 |
| 20260501233508 | 13 | 344 | 11.3 | 24.1 | 0.00 | 0.00 | 0.00 | 33 | 1020.2 |
| 20260501233010 | 13 | 9 | 8.0 | 22.5 | 0.00 | 0.00 | 0.00 | 33 | 1020.2 |
| 20260501232509 | 14 | 317 | 11.3 | 27.4 | 0.00 | 0.00 | 0.00 | 32 | 1020.1 |
| 20260501232009 | 14 | 11 | 4.8 | 27.4 | 0.00 | 0.00 | 0.00 | 34 | 1020.1 |
| 20260501231510 | 14 | 330 | 9.7 | 22.5 | 0.00 | 0.00 | 0.00 | 33 | 1020.1 |
| 20260501231009 | 14 | 34 | 9.7 | 20.9 | 0.00 | 0.00 | 0.00 | 33 | 1020.1 |
| 20260501230508 | 14 | 289 | 6.4 | 20.9 | 0.00 | 0.00 | 0.00 | 33 | 1020.2 |
| 20260501230009 | 14 | 279 | 4.8 | 12.9 | 0.00 | 0.00 | 0.00 | 34 | 1020.2 |
| 20260501225508 | 14 | 265 | 4.8 | 14.5 | 0.00 | 0.00 | 0.00 | 33 | 1020.2 |
| 20260501224509 | 14 | 266 | 8.0 | 24.1 | 0.00 | 0.00 | 0.00 | 34 | 1020.2 |
| 20260501224009 | 14 | 259 | 4.8 | 24.1 | 0.00 | 0.00 | 0.00 | 34 | 1020.2 |
| 20260501223510 | 14 | 247 | 4.8 | 16.1 | 0.00 | 0.00 | 0.00 | 34 | 1020.2 |
| 20260501222009 | 14 | 9 | 16.1 | 24.1 | 0.00 | 0.00 | 0.00 | 34 | 1020.2 |
| 20260501221010 | 14 | 321 | 9.7 | 19.3 | 0.00 | 0.00 | 0.00 | 33 | 1020.1 |
| 20260501220009 | 14 | 5 | 11.3 | 25.7 | 0.00 | 0.00 | 0.00 | 34 | 1020.2 |
| 20260501215510 | 14 | 302 | 8.0 | 19.3 | 0.00 | 0.00 | 0.00 | 35 | 1020.2 |
| 20260501214509 | 14 | 261 | 4.8 | 19.3 | 0.00 | 0.00 | 0.00 | 34 | 1020.2 |
| 20260501214010 | 14 | 304 | 4.8 | 25.7 | 0.00 | 0.00 | 0.00 | 33 | 1020.2 |
| 20260501213013 | 15 | 321 | 12.9 | 25.7 | 0.00 | 0.00 | 0.00 | 33 | 1020.2 |
| 20260501212509 | 15 | 265 | 4.8 | 20.9 | 0.00 | 0.00 | 0.00 | 35 | 1020.2 |
| 20260501212010 | 15 | 0 | 4.8 | 11.3 | 0.00 | 0.00 | 0.00 | 35 | 1020.2 |
| 20260501211509 | 15 | 284 | 4.8 | 19.3 | 0.00 | 0.00 | 0.00 | 36 | 1020.2 |
| 20260501211010 | 15 | 327 | 4.8 | 22.5 | 0.00 | 0.00 | 0.00 | 34 | 1020.2 |
| 20260501210009 | 15 | 346 | 9.7 | 22.5 | 0.00 | 0.00 | 0.00 | 35 | 1020.2 |
| 20260501205510 | 15 | 337 | 11.3 | 27.4 | 0.00 | 0.00 | 0.00 | 35 | 1020.4 |
| 20260501204509 | 15 | 267 | 6.4 | 24.1 | 0.00 | 0.00 | 0.00 | 35 | 1020.4 |
| 20260501204010 | 15 | 303 | 8.0 | 24.1 | 0.00 | 0.00 | 0.00 | 35 | 1020.5 |
| 20260501203510 | 15 | 347 | 6.4 | 24.1 | 0.00 | 0.00 | 0.00 | 37 | 1020.4 |
| 20260501203010 | 15 | 300 | 6.4 | 33.8 | 0.00 | 0.00 | 0.00 | 35 | 1020.5 |
| 20260501202510 | 15 | 308 | 8.0 | 33.8 | 0.00 | 0.00 | 0.00 | 36 | 1020.6 |
| 20260501202009 | 15 | 346 | 9.7 | 19.3 | 0.00 | 0.00 | 0.00 | 36 | 1020.6 |
| 20260501201509 | 15 | 345 | 4.8 | 24.1 | 0.00 | 0.00 | 0.00 | 38 | 1020.6 |
| 20260501201010 | 15 | 331 | 9.7 | 24.1 | 0.00 | 0.00 | 0.00 | 36 | 1020.6 |
| 20260501200509 | 15 | 342 | 9.7 | 19.3 | 0.00 | 0.00 | 0.00 | 38 | 1020.6 |
| 20260501200009 | 15 | 331 | 3.2 | 19.3 | 0.00 | 0.00 | 0.00 | 39 | 1020.6 |
| 20260501195509 | 15 | 227 | 3.2 | 19.3 | 0.00 | 0.00 | 0.00 | 39 | 1020.6 |
| 20260501195009 | 14 | 343 | 6.4 | 19.3 | 0.00 | 0.00 | 0.00 | 40 | 1020.6 |
| 20260501194509 | 14 | 240 | 6.4 | 16.1 | 0.00 | 0.00 | 0.00 | 40 | 1020.7 |
| 20260501194010 | 14 | 272 | 8.0 | 19.3 | 0.00 | 0.00 | 0.00 | 39 | 1020.7 |
| 20260501193509 | 14 | 331 | 1.6 | 25.7 | 0.00 | 0.00 | 0.00 | 39 | 1020.7 |
| 20260501193009 | 14 | 309 | 11.3 | 25.7 | 0.00 | 0.00 | 0.00 | 40 | 1020.7 |
| 20260501192509 | 14 | 338 | 12.9 | 25.7 | 0.00 | 0.00 | 0.00 | 39 | 1020.8 |
| 20260501192009 | 14 | 329 | 4.8 | 22.5 | 0.00 | 0.00 | 0.00 | 42 | 1020.7 |
| 20260501191509 | 14 | 284 | 4.8 | 22.5 | 0.00 | 0.00 | 0.00 | 43 | 1020.7 |
| 20260501190509 | 14 | 14 | 11.3 | 20.9 | 0.00 | 0.00 | 0.00 | 42 | 1020.7 |
| 20260501190009 | 14 | 9 | 8.0 | 27.4 | 0.00 | 0.00 | 0.00 | 43 | 1020.7 |
| 20260501185509 | 14 | 215 | 6.4 | 27.4 | 0.00 | 0.00 | 0.00 | 44 | 1020.7 |
| 20260501184510 | 13 | 290 | 6.4 | 25.7 | 0.00 | 0.00 | 0.00 | 45 | 1020.7 |
| 20260501184009 | 13 | 313 | 11.3 | 25.7 | 0.00 | 0.00 | 0.00 | 41 | 1020.7 |
| 20260501183509 | 13 | 298 | 14.5 | 20.9 | 0.00 | 0.00 | 0.00 | 42 | 1020.7 |
| 20260501182509 | 13 | 290 | 4.8 | 25.7 | 0.00 | 0.00 | 0.00 | 46 | 1020.7 |
| 20260501182010 | 13 | 23 | 12.9 | 27.4 | 0.00 | 0.00 | 0.00 | 44 | 1020.7 |
| 20260501181510 | 14 | 332 | 16.1 | 27.4 | 0.00 | 0.00 | 0.00 | 42 | 1020.7 |
| 20260501181009 | 15 | 345 | 14.5 | 27.4 | 0.00 | 0.00 | 0.00 | 44 | 1020.7 |
| 20260501180509 | 15 | 2 | 8.0 | 24.1 | 0.00 | 0.00 | 0.00 | 45 | 1020.7 |
| 20260501175508 | 15 | 354 | 9.7 | 24.1 | 0.00 | 0.00 | 0.00 | 47 | 1020.8 |
| 20260501175010 | 14 | 284 | 4.8 | 19.3 | 0.00 | 0.00 | 0.00 | 45 | 1020.9 |
| 20260501174510 | 14 | 11 | 3.2 | 20.9 | 0.00 | 0.00 | 0.00 | 49 | 1020.9 |
| 20260501174010 | 13 | 264 | 8.0 | 24.1 | 0.00 | 0.00 | 0.00 | 50 | 1021.0 |
| 20260501173509 | 13 | 345 | 9.7 | 25.7 | 0.00 | 0.00 | 0.00 | 50 | 1021.1 |
| 20260501173010 | 13 | 292 | 8.0 | 25.7 | 0.00 | 0.00 | 0.00 | 50 | 1021.2 |
| 20260501172509 | 13 | 330 | 8.0 | 22.5 | 0.00 | 0.00 | 0.00 | 49 | 1021.1 |
| 20260501172010 | 13 | 349 | 9.7 | 24.1 | 0.00 | 0.00 | 0.00 | 49 | 1021.1 |
| 20260501171510 | 13 | 341 | 11.3 | 24.1 | 0.00 | 0.00 | 0.00 | 50 | 1021.1 |
| 20260501170510 | 13 | 352 | 12.9 | 24.1 | 0.00 | 0.00 | 0.00 | 53 | 1021.1 |
| 20260501170010 | 13 | 348 | 6.4 | 25.7 | 0.00 | 0.00 | 0.00 | 54 | 1021.1 |
| 20260501165510 | 12 | 331 | 12.9 | 25.7 | 0.00 | 0.00 | 0.00 | 54 | 1021.2 |
| 20260501165010 | 12 | 328 | 11.3 | 25.7 | 0.00 | 0.00 | 0.00 | 54 | 1021.2 |
| 20260501164510 | 12 | 337 | 9.7 | 22.5 | 0.00 | 0.00 | 0.00 | 55 | 1021.1 |
| 20260501164010 | 12 | 319 | 9.7 | 16.1 | 0.00 | 0.00 | 0.00 | 56 | 1021.1 |
| 20260501163010 | 12 | 0 | 8.0 | 20.9 | 0.00 | 0.00 | 0.00 | 58 | 1021.0 |
| 20260501162010 | 12 | 292 | 4.8 | 25.7 | 0.00 | 0.00 | 0.00 | 59 | 1021.1 |
| 20260501161011 | 12 | 288 | 4.8 | 24.1 | 0.00 | 0.00 | 0.00 | 61 | 1021.1 |
| 20260501160510 | 11 | 311 | 8.0 | 27.4 | 0.00 | 0.00 | 0.00 | 61 | 1020.9 |
| 20260501155510 | 11 | 343 | 8.0 | 22.5 | 0.00 | 0.00 | 0.00 | 62 | 1020.9 |
| 20260501154009 | 11 | 351 | 9.7 | 25.7 | 0.00 | 0.00 | 0.00 | 62 | 1020.8 |
| 20260501153509 | 11 | 337 | 8.0 | 22.5 | 0.00 | 0.00 | 0.00 | 62 | 1020.8 |
| 20260501152509 | 10 | 325 | 9.7 | 20.9 | 0.00 | 0.00 | 0.00 | 62 | 1020.7 |